Погода в Маркове

Россия / Курская область     51°24′46″N   34°23′37″E
В апреле 2022 года жителям России запретили посещать сайт meteo.paraplan.net по решению Генеральной прокуратуры. Аудитория сайта уменьшилась в 10 раз. Владельцы сайта не видят смысла в поддержке погодного сервера в таких условиях. Сайт будет закрыт в октябре.
темп.,
°C
ветер,
м/с
пор.,
м/с
влажн.,
%
обл.,
%
осадки,
мм/ч
давл.,
гПа
погр.,
м
30 сентября, пт
пт3000:00+11юв3893100 0.0 1013150
03:00+12ююв41189100 0.1 1013215
06:00+12ююв4997100 1.4 1013224
09:00+13юв51194100 1.8 1013318
12:00+18ююз567660 0.1 1014750
15:00+19ююз457898 0.4 1014828
18:00+17ю1183100 0.6 101514
21:00+15вюв1289100 1.1 101511
1 октября, сб
сб100:00+14вюв239587 0.0 101541
03:00+14ю2296100 0.4 101529
06:00+13ююз23966 1.1 101541
09:00+16юз358960 0.9 1015182
12:00+20ююз5870100 0.0 1014682
15:00+20юз7106670 0.0 10131250
18:00+16з51069100 0.1 1014408
21:00+14зюз3877100 0.1 1014221
2 октября, вс
вс200:00+13зюз2681100 0.1 1013303
03:00+12ююз3593100 1.0 1012237
06:00+12ю2498100 3.3 1011164
09:00+13вюв3598100 11.3 1008152
12:00+16вюв5880100 1.8 1007685
15:00+17юв3789100 3.1 1002401
18:00+15юв3698100 7.1 999338
21:00+12сз71095100 11.6 999427
3 октября, пн
пн300:00+9сз71391100 0.1 1000655
03:00+9сз71290100 0.1 1001722
06:00+8зсз71190100 0.1 1001733
09:00+8з61091100 0.1 1002681
12:00+9з6984100 0.3 1004756
15:00+10з5977100 0.6 1005850
18:00+9зюз3684100 0.3 1008231
21:00+9юз5108282 0.4 1009311
4 октября, вт
вт400:00+7юз5109351 0.1 1010326
03:00+6юз389717 0.1 1011209
06:00+6ююз489979 0.0 1012253
09:00+8ююз598796 0.0 1013612
12:00+11ююз6974100 0.1 10131048
15:00+11ююз5108079 0.7 1014748
18:00+10ююз4985100 0.3 1014434
21:00+9ю4991100 0.6 1015375